Location: Hilton Head Island
(32.2163°N, 80.7526°W)
Time: 20:22:52
(UTC-05:00)

Hubble Space Telescope - Visible Passes

Search period start: 18 January 2026 00:00
Search period end: 28 January 2026 00:00
Orbit: 479 x 481 km, 28.5° (Epoch: 18 January)

Date Brightness Start Highest point End Pass type
(mag) Time Alt. Az. Time Alt. Az. Time Alt. Az.
20 Jan 3.5 20:05:23 10° SSW 20:05:42 12° SSW 20:05:42 12° SSW visible
21 Jan 2.5 19:35:36 10° SSW 19:37:44 20° S 19:37:44 20° S visible
22 Jan 2.2 19:05:49 10° SW 19:08:46 22° SSE 19:09:44 20° SE visible
23 Jan 2.3 18:36:01 10° SW 18:38:59 22° SSE 18:41:41 11° ESE visible
23 Jan 3.3 20:14:53 10° WSW 20:15:49 16° WSW 20:15:49 16° WSW visible
24 Jan 1.8 19:45:05 10° WSW 19:47:45 35° SSW 19:47:45 35° SSW visible
25 Jan 1.2 19:15:16 10° WSW 19:18:52 43° S 19:19:40 37° SE visible
26 Jan 1.3 18:45:26 10° WSW 18:49:02 43° S 18:51:35 17° ESE visible
26 Jan 3.6 20:25:04 10° WSW 20:25:42 14° WSW 20:25:42 14° WSW visible
27 Jan 1.4 18:15:35 10° WSW 18:19:11 44° S 18:22:48 10° ESE visible
27 Jan 2.2 19:55:13 10° WSW 19:57:38 31° SW 19:57:38 31° SW visible
